This is the latest recevied weather packets stored in our database for station/object KD9CCP. If no packets are shown the sender has not sent any weather packets the latest 10 day(s).
| Time | Temp. | Humidity | Pressure | Rain* | Wind** | Luminosity | Snow |
|---|---|---|---|---|---|---|---|
| 1777868969 | 6.11° C | 68% | 1004.2 hPa | 0 mm | - | 0 W/m² | - |
| 1777868666 | 6.67° C | 70% | 1004 hPa | 0 mm | - | 0 W/m² | - |
| 1777868362 | 6.67° C | 70% | 1003.9 hPa | 0 mm | - | 0 W/m² | - |
| 1777868058 | 6.67° C | 69% | 1004.1 hPa | 0 mm | - | 0 W/m² | - |
| 1777867754 | 6.67° C | 71% | 1004.1 hPa | 0 mm | - | 0 W/m² | - |
| 1777867453 | 6.67° C | 72% | 1004.1 hPa | 0 mm | - | 0 W/m² | - |
| 1777867148 | 7.22° C | 72% | 1004.1 hPa | 0 mm | - | 0 W/m² | - |
| 1777866846 | 7.22° C | 73% | 1004.5 hPa | 0 mm | - | 0 W/m² | - |
| 1777866542 | 7.22° C | 71% | 1004.5 hPa | 0 mm | - | 0 W/m² | - |
| 1777866240 | 7.78° C | 68% | 1004.2 hPa | 0 mm | - | 0 W/m² | - |
| 1777865936 | 7.78° C | 68% | 1004.5 hPa | 0 mm | - | 0 W/m² | - |
| 1777865634 | 7.78° C | 66% | 1004.7 hPa | 0 mm | - | 0 W/m² | - |
| 1777865331 | 7.78° C | 69% | 1004.8 hPa | 0 mm | - | 0 W/m² | - |
| 1777865028 | 8.33° C | 66% | 1004.6 hPa | 0 mm | - | 0 W/m² | - |
| 1777864724 | 8.33° C | 62% | 1004.8 hPa | 0 mm | - | 0 W/m² | - |
| 1777864422 | 8.33° C | 65% | 1004.8 hPa | 0 mm | - | 0 W/m² | - |
| 1777864118 | 8.33° C | 65% | 1004.9 hPa | 0 mm | - | 0 W/m² | - |
| 1777863816 | 8.33° C | 64% | 1004.9 hPa | 0 mm | - | 0 W/m² | - |
| 1777863512 | 8.89° C | 63% | 1004.8 hPa | 0 mm | - | 0 W/m² | - |
| 1777863209 | 8.89° C | 62% | 1004.9 hPa | 0 mm | - | 0 W/m² | - |
| 1777862905 | 8.89° C | 63% | 1005 hPa | 0 mm | - | 0 W/m² | - |
| 1777862602 | 8.89° C | 63% | 1004.9 hPa | 0 mm | - | 0 W/m² | - |
| 1777862299 | 8.89° C | 63% | 1005 hPa | 0 mm | - | 0 W/m² | - |
| 1777861995 | 8.89° C | 62% | 1004.9 hPa | 0 mm | - | 0 W/m² | - |
| 1777861691 | 8.89° C | 61% | 1004.9 hPa | 0 mm | - | 0 W/m² | - |
* Rain latest hour (hover to see other rain measurements)
** Current wind speed in m/s (hover to see current wind gust speed)